• In Deutschland
  • Länderverzeichnis
  • Für 7 Tage
  • Wassertemperatur
  • Satellitenkarten
  • Wetterkarte
  • Widgets
  • user-avatar
    Anmelden

    Stündliche Wetter New Berlin

    Heute, 26 September, Dienstag

    Zeit Temperatur Niederschläge Wind Luftdruck Luftfeuchtigkeit
    00:00 +24°C° 0 mm 3 m/S 737 mmHg 58%
    01:00 +24°C° 0 mm 3 m/S 737 mmHg 61%
    02:00 +24°C° 0 mm 3 m/S 736 mmHg 64%
    03:00 +23°C° 0 mm 2 m/S 736 mmHg 67%
    04:00 +23°C° 0 mm 2 m/S 736 mmHg 69%
    05:00 +21°C° 0 mm 2 m/S 737 mmHg 70%
    06:00 +21°C° 0 mm 2 m/S 737 mmHg 72%
    07:00 +24°C° 0,1 mm 3 m/S 737 mmHg 69%
    08:00 +25°C° 0,1 mm 3 m/S 737 mmHg 67%
    09:00 +27°C° 0,1 mm 4 m/S 737 mmHg 65%
    10:00 +28°C° 0,1 mm 4 m/S 737 mmHg 61%
    11:00 +29°C° 0,1 mm 4 m/S 737 mmHg 58%
    12:00 +30°C° 0,1 mm 4 m/S 737 mmHg 54%
    13:00 +30°C° 0,2 mm 4 m/S 737 mmHg 55%
    14:00 +30°C° 0,2 mm 4 m/S 737 mmHg 57%
    15:00 +29°C° 0,2 mm 4 m/S 737 mmHg 58%
    16:00 +27°C° 0,1 mm 4 m/S 737 mmHg 64%
    17:00 +26°C° 0,1 mm 4 m/S 737 mmHg 71%
    18:00 +23°C° 0,1 mm 4 m/S 737 mmHg 78%
    19:00 +22°C° 0 mm 4 m/S 737 mmHg 81%
    20:00 +21°C° 0 mm 4 m/S 737 mmHg 85%
    21:00 +20°C° 0 mm 5 m/S 738 mmHg 88%
    22:00 +17°C° 0 mm 5 m/S 738 mmHg 88%
    23:00 +16°C° 0 mm 5 m/S 738 mmHg 87%

    Morgen, 27 September, Mittwoch

    Zeit Temperatur Niederschläge Wind Luftdruck Luftfeuchtigkeit
    00:00 +15°C° 0 mm 5 m/S 738 mmHg 87%
    01:00 +15°C° 0 mm 5 m/S 739 mmHg 87%
    02:00 +14°C° 0 mm 5 m/S 739 mmHg 87%
    03:00 +13°C° 0 mm 5 m/S 739 mmHg 86%
    04:00 +12°C° 0 mm 4 m/S 740 mmHg 86%
    05:00 +12°C° 0 mm 4 m/S 740 mmHg 87%
    06:00 +11°C° 0 mm 4 m/S 740 mmHg 87%
    07:00 +12°C° 0 mm 5 m/S 740 mmHg 80%
    08:00 +14°C° 0 mm 5 m/S 741 mmHg 74%
    09:00 +15°C° 0 mm 5 m/S 741 mmHg 67%
    10:00 +16°C° 0 mm 5 m/S 741 mmHg 61%
    11:00 +17°C° 0 mm 5 m/S 741 mmHg 56%
    12:00 +20°C° 0 mm 5 m/S 741 mmHg 50%
    13:00 +20°C° 0 mm 5 m/S 741 mmHg 49%
    14:00 +20°C° 0 mm 5 m/S 741 mmHg 49%
    15:00 +20°C° 0 mm 5 m/S 741 mmHg 48%
    16:00 +19°C° 0 mm 5 m/S 741 mmHg 52%
    17:00 +16°C° 0 mm 5 m/S 741 mmHg 56%
    18:00 +15°C° 0 mm 4 m/S 741 mmHg 60%
    19:00 +14°C° 0 mm 4 m/S 742 mmHg 63%
    20:00 +13°C° 0 mm 4 m/S 742 mmHg 66%
    21:00 +13°C° 0 mm 4 m/S 742 mmHg 69%
    22:00 +12°C° 0 mm 4 m/S 742 mmHg 71%
    23:00 +11°C° 0 mm 4 m/S 742 mmHg 74%

    übermorgen, 28 September, Donnerstag

    Zeit Temperatur Niederschläge Wind Luftdruck Luftfeuchtigkeit
    00:00 +11°C° 0 mm 4 m/S 742 mmHg 76%
    01:00 +10°C° 0 mm 3 m/S 742 mmHg 78%
    02:00 +10°C° 0 mm 3 m/S 742 mmHg 80%
    03:00 +9°C° 0 mm 3 m/S 742 mmHg 82%
    04:00 +9°C° 0 mm 3 m/S 742 mmHg 82%
    05:00 +9°C° 0 mm 2 m/S 742 mmHg 83%
    06:00 +9°C° 0 mm 2 m/S 743 mmHg 83%
    07:00 +12°C° 0 mm 2 m/S 743 mmHg 75%
    08:00 +14°C° 0 mm 2 m/S 743 mmHg 66%
    09:00 +17°C° 0 mm 3 m/S 743 mmHg 57%
    10:00 +18°C° 0 mm 3 m/S 743 mmHg 53%
    11:00 +20°C° 0 mm 3 m/S 743 mmHg 49%
    12:00 +22°C° 0 mm 3 m/S 742 mmHg 45%
    13:00 +22°C° 0 mm 3 m/S 742 mmHg 44%
    14:00 +22°C° 0 mm 3 m/S 741 mmHg 44%
    15:00 +24°C° 0 mm 3 m/S 741 mmHg 44%
    16:00 +21°C° 0 mm 3 m/S 741 mmHg 49%
    17:00 +20°C° 0 mm 3 m/S 741 mmHg 55%
    18:00 +18°C° 0 mm 3 m/S 741 mmHg 61%
    19:00 +18°C° 0 mm 3 m/S 741 mmHg 62%
    20:00 +17°C° 0 mm 3 m/S 741 mmHg 64%
    21:00 +16°C° 0 mm 3 m/S 741 mmHg 66%
    22:00 +16°C° 0 mm 3 m/S 741 mmHg 68%
    23:00 +16°C° 0 mm 3 m/S 741 mmHg 69%

    29 September, Freitag

    Zeit Temperatur Niederschläge Wind Luftdruck Luftfeuchtigkeit
    00:00 +14°C° 0 mm 3 m/S 741 mmHg 71%
    01:00 +13°C° 0 mm 3 m/S 741 mmHg 74%
    02:00 +12°C° 0 mm 3 m/S 741 mmHg 77%
    03:00 +11°C° 0 mm 3 m/S 741 mmHg 81%
    04:00 +11°C° 0 mm 3 m/S 741 mmHg 82%
    05:00 +10°C° 0 mm 3 m/S 741 mmHg 83%
    06:00 +10°C° 0 mm 4 m/S 742 mmHg 84%
    07:00 +12°C° 0 mm 4 m/S 742 mmHg 76%
    08:00 +14°C° 0 mm 5 m/S 743 mmHg 68%
    09:00 +15°C° 0 mm 5 m/S 743 mmHg 61%
    10:00 +16°C° 0 mm 5 m/S 743 mmHg 57%
    11:00 +17°C° 0 mm 5 m/S 744 mmHg 53%
    12:00 +19°C° 0 mm 5 m/S 744 mmHg 50%
    13:00 +19°C° 0 mm 6 m/S 744 mmHg 51%
    14:00 +19°C° 0 mm 6 m/S 744 mmHg 52%
    15:00 +19°C° 0 mm 6 m/S 744 mmHg 54%
    16:00 +16°C° 0 mm 5 m/S 744 mmHg 60%
    17:00 +15°C° 0 mm 5 m/S 744 mmHg 66%
    18:00 +13°C° 0 mm 5 m/S 745 mmHg 73%
    19:00 +13°C° 0 mm 4 m/S 745 mmHg 75%
    20:00 +12°C° 0 mm 4 m/S 746 mmHg 78%
    21:00 +11°C° 0 mm 4 m/S 746 mmHg 81%
    22:00 +11°C° 0 mm 4 m/S 746 mmHg 81%
    23:00 +11°C° 0 mm 3 m/S 747 mmHg 81%

    30 September, Samstag

    Zeit Temperatur Niederschläge Wind Luftdruck Luftfeuchtigkeit
    00:00 +11°C° 0 mm 3 m/S 747 mmHg 80%
    01:00 +11°C° 0 mm 3 m/S 747 mmHg 81%
    02:00 +11°C° 0 mm 3 m/S 747 mmHg 81%
    03:00 +12°C° 0 mm 2 m/S 747 mmHg 81%
    04:00 +12°C° 0 mm 2 m/S 747 mmHg 81%
    05:00 +10°C° 0 mm 2 m/S 748 mmHg 81%
    06:00 +10°C° 0 mm 2 m/S 748 mmHg 81%
    07:00 +13°C° 0 mm 2 m/S 748 mmHg 75%
    08:00 +15°C° 0 mm 2 m/S 748 mmHg 68%
    09:00 +17°C° 0 mm 3 m/S 749 mmHg 62%
    10:00 +18°C° 0 mm 3 m/S 748 mmHg 58%
    11:00 +19°C° 0 mm 3 m/S 748 mmHg 53%
    12:00 +19°C° 0 mm 4 m/S 747 mmHg 49%
    13:00 +19°C° 0 mm 4 m/S 747 mmHg 49%
    14:00 +19°C° 0 mm 4 m/S 746 mmHg 49%
    15:00 +19°C° 0 mm 4 m/S 746 mmHg 49%
    16:00 +18°C° 0 mm 4 m/S 746 mmHg 52%
    17:00 +15°C° 0 mm 4 m/S 745 mmHg 55%
    18:00 +14°C° 0 mm 4 m/S 745 mmHg 58%
    19:00 +14°C° 0 mm 4 m/S 745 mmHg 58%
    20:00 +14°C° 0 mm 4 m/S 745 mmHg 58%
    21:00 +13°C° 0 mm 4 m/S 745 mmHg 58%
    22:00 +13°C° 0 mm 4 m/S 745 mmHg 61%
    23:00 +12°C° 0 mm 4 m/S 745 mmHg 63%

    1 Oktober, Sonntag

    Zeit Temperatur Niederschläge Wind Luftdruck Luftfeuchtigkeit
    00:00 +12°C° 0 mm 4 m/S 745 mmHg 66%
    01:00 +12°C° 0 mm 4 m/S 745 mmHg 67%
    02:00 +11°C° 0 mm 4 m/S 745 mmHg 68%
    03:00 +11°C° 0 mm 4 m/S 745 mmHg 69%
    04:00 +11°C° 0 mm 4 m/S 745 mmHg 70%
    05:00 +11°C° 0 mm 4 m/S 745 mmHg 71%
    06:00 +10°C° 0 mm 4 m/S 745 mmHg 72%
    07:00 +13°C° 0 mm 4 m/S 745 mmHg 66%
    08:00 +15°C° 0 mm 4 m/S 745 mmHg 60%
    09:00 +18°C° 0 mm 4 m/S 745 mmHg 53%
    10:00 +19°C° 0 mm 5 m/S 745 mmHg 49%
    11:00 +20°C° 0 mm 5 m/S 744 mmHg 45%
    12:00 +22°C° 0 mm 5 m/S 744 mmHg 41%
    13:00 +22°C° 0 mm 5 m/S 744 mmHg 41%
    14:00 +22°C° 0 mm 5 m/S 743 mmHg 41%
    15:00 +22°C° 0 mm 5 m/S 743 mmHg 42%
    16:00 +20°C° 0 mm 5 m/S 743 mmHg 47%
    17:00 +19°C° 0 mm 5 m/S 743 mmHg 52%
    18:00 +16°C° 0 mm 5 m/S 743 mmHg 57%
    19:00 +16°C° 0 mm 5 m/S 743 mmHg 58%
    20:00 +16°C° 0 mm 5 m/S 743 mmHg 60%
    21:00 +15°C° 0 mm 5 m/S 743 mmHg 61%
    22:00 +15°C° 0 mm 5 m/S 743 mmHg 61%
    23:00 +15°C° 0 mm 4 m/S 743 mmHg 62%
    Mehr zeigen